Wind_Speed
4 3 4 5 6 7 9 11 12 12 11 7 7 7 12 9 6 9 9 10 11 5 2 4 5 6 5 5 4 3 5 4 2 3 4 2 3 8 9 11 10 8 8 16 23 21 19 26 27 27 29 29 30 28 27 27 25 26 28 27 25 24 25 25 24 25 25 25 25 24 23 22 19 16 13 12 12 12 13 14 14 15 16 16 14 13
5 4 5 8 9 11 11 12 13 12 12 11 7 4 10 9 7 10 12 13 8 3 4 5 6 6 5 4 3 4 3 3 4 4 3 4 4 1 6 12 11 7 8 15 19 19 20 26 27 27 28 29 30 28 29 28 26 27 28 27 26 25 25 25 24 25 24 23 23 22 22 22 21 20 16 15 14 13 13 14 14 15 17 17 15 13
5 5 7 10 10 12 12 11 12 11 11 10 6 1 6 7 8 8 11 15 8 2 5 7 6 4 4 5 4 4 4 3 2 1 3 3 3 2 3 8 12 9 8 12 14 16 20 26 26 26 27 29 31 28 29 28 26 28 29 27 27 25 25 24 23 23 22 21 20 20 20 21 20 19 17 17 16 14 14 13 14 14 16 18 17 14
4 5 10 11 10 11 11 12 12 10 8 6 5 1 6 10 10 6 8 12 7 4 7 8 6 3 2 4 4 3 4 5 2 1 3 2 1 2 4 2 7 11 10 12 13 13 18 24 24 25 26 29 30 27 28 28 26 29 29 27 27 25 24 24 22 21 19 19 19 18 19 19 18 18 17 17 15 14 14 14 14 14 14 16 16 14
5 8 11 12 11 10 11 12 11 8 5 5 7 4 7 13 12 9 11 10 5 4 9 9 6 3 2 3 3 3 2 4 4 2 1 4 2 1 3 5 4 8 11 12 13 11 15 21 22 24 27 29 29 26 27 28 25 28 29 27 27 25 23 23 22 21 19 18 18 19 20 19 18 17 17 18 17 14 15 15 15 14 14 14 13 14
7 9 11 12 12 11 9 10 10 7 4 5 7 4 4 13 14 14 16 12 5 2 7 9 4 2 4 5 4 1 1 3 4 4 3 4 3 2 2 5 6 5 11 11 12 11 13 19 22 24 27 28 27 26 27 27 24 27 29 26 25 25 24 23 22 21 20 19 19 21 22 21 20 19 19 20 20 17 17 16 16 15 14 13 12 12
6 8 9 11 11 11 9 7 8 9 5 3 5 3 2 13 18 16 16 11 5 4 10 9 4 3 4 4 6 5 1 3 3 5 5 3 3 3 4 5 5 4 10 12 11 11 14 19 21 22 26 27 27 26 27 26 24 27 29 26 25 25 24 24 22 21 22 21 19 20 22 23 23 21 21 22 21 19 18 16 17 16 15 14 13 11
7 10 9 10 10 9 8 6 7 8 4 2 5 8 6 14 17 16 16 9 4 6 7 7 6 5 2 2 6 8 7 5 4 5 5 4 5 5 6 5 1 3 7 11 11 10 13 21 22 20 24 27 27 27 27 26 25 28 29 26 25 25 24 24 22 22 24 23 20 19 20 22 22 20 20 20 20 20 18 17 17 17 17 16 14 13
8 10 10 8 9 7 5 4 6 4 5 6 6 6 9 14 14 13 12 6 4 7 5 6 7 5 2 1 3 6 8 8 7 7 7 8 9 7 7 5 1 2 3 6 12 11 12 21 24 22 24 27 28 28 27 26 26 29 30 26 25 25 24 24 22 23 24 24 22 19 18 19 18 17 18 18 19 20 19 19 18 17 18 17 15 15
7 9 10 7 6 6 4 5 7 4 4 7 8 7 6 12 13 10 6 3 5 7 7 11 9 4 3 2 2 3 5 7 7 6 6 8 9 6 5 3 1 1 4 1 7 11 16 23 25 24 24 25 28 29 27 27 28 30 30 27 26 26 25 25 23 23 24 24 23 21 19 19 18 17 17 17 19 20 20 20 20 18 19 18 16 16
6 8 8 7 5 6 6 7 8 9 6 6 8 9 5 6 7 6 2 1 2 2 6 16 13 5 4 3 3 3 4 5 6 4 4 6 7 5 2 3 2 3 3 2 3 4 15 26 27 25 24 24 28 29 28 28 30 31 30 28 27 26 25 26 24 23 24 24 24 23 20 19 19 18 18 18 19 21 21 20 21 20 19 19 18 16
7 5 5 6 5 3 5 7 8 9 10 7 6 3 0 2 2 4 2 1 1 4 2 13 12 7 4 3 4 5 5 6 6 6 7 7 5 4 2 4 4 3 3 2 4 2 7 18 24 25 23 23 28 30 27 29 31 31 30 28 28 27 25 26 26 24 24 24 24 24 20 19 19 19 20 19 19 21 21 21 22 19 18 20 19 17
5 4 4 5 2 1 1 4 4 5 6 4 4 2 3 1 2 3 3 2 3 4 1 12 13 7 3 4 8 8 7 7 6 5 7 7 5 4 4 7 5 3 3 3 4 2 3 6 14 23 23 20 26 31 27 28 31 30 30 29 28 28 25 26 27 25 25 24 24 24 20 19 20 20 20 20 19 21 20 21 22 19 18 20 20 19
1 5 2 3 2 1 4 2 2 1 3 1 2 2 4 3 2 2 3 3 3 4 5 13 11 5 2 3 5 8 9 8 7 6 6 8 8 7 7 8 5 3 3 3 4 3 4 4 5 16 22 20 24 31 28 28 30 30 30 29 29 29 26 26 28 26 26 25 24 24 21 19 20 20 20 20 20 20 19 19 21 20 19 20 20 20
4 3 3 2 2 4 6 2 0 2 3 3 1 0 1 2 4 3 3 4 4 3 5 7 7 4 4 4 4 6 10 10 9 7 6 7 6 6 7 7 4 2 1 3 4 3 4 4 3 5 14 18 24 29 28 29 31 30 31 30 28 29 27 26 29 28 27 26 24 24 22 20 21 20 19 20 19 20 19 18 19 20 19 20 20 19
6 3 6 6 2 5 8 4 1 4 1 4 2 1 3 3 4 3 3 6 5 5 4 3 4 4 4 7 6 6 10 12 11 8 5 6 5 4 4 3 3 2 1 3 3 3 4 2 2 2 4 13 24 29 26 28 32 31 31 32 29 29 27 26 28 28 27 26 25 25 23 21 21 20 19 19 18 19 19 18 18 18 18 18 18 18
3 2 6 9 4 5 5 2 1 0 1 2 2 2 5 4 4 2 3 4 2 5 3 1 6 6 5 6 6 6 8 9 9 9 6 6 7 6 4 4 3 3 3 4 4 3 4 4 3 5 4 4 14 26 27 28 33 33 32 32 29 28 27 25 27 28 27 26 24 25 25 23 22 21 20 20 19 19 19 18 17 17 17 16 16 17
3 3 5 11 9 2 0 2 3 5 2 1 1 3 6 4 1 0 1 2 1 5 3 3 7 7 4 2 3 5 6 5 8 10 9 8 8 8 7 5 5 4 4 3 5 5 5 6 9 10 6 3 3 12 20 24 30 33 34 35 32 29 28 26 26 26 26 26 25 25 25 25 24 23 22 21 20 19 18 18 17 17 17 16 15 16
3 4 3 5 7 3 2 2 4 7 5 1 2 3 3 2 3 0 2 2 2 5 3 3 3 2 2 2 4 6 7 9 11 11 11 9 9 8 8 8 7 6 5 5 6 5 5 7 8 4 4 3 5 1 9 13 21 25 27 31 32 31 30 27 25 26 25 25 25 25 26 25 25 25 23 21 20 19 19 19 18 17 17 16 15 16
2 2 2 1 3 3 1 3 1 4 4 3 4 4 2 3 2 2 2 3 3 5 4 3 1 2 1 1 3 5 8 11 12 10 10 10 10 9 7 8 7 5 5 5 6 5 6 8 5 6 3 5 7 6 4 7 14 17 18 21 23 26 29 28 25 25 25 26 25 25 26 26 25 25 24 22 21 21 20 19 19 18 18 17 15 15
3 3 3 2 3 3 2 2 3 3 1 0 2 4 4 2 1 2 4 3 5 6 5 6 3 1 1 2 3 5 8 10 11 11 10 10 11 10 8 8 6 4 4 5 6 7 7 6 3 1 8 9 4 3 3 4 10 15 16 15 11 10 17 23 24 22 22 24 26 25 26 27 26 24 24 23 22 22 21 20 19 18 18 18 18 17
3 3 2 3 3 3 3 5 7 6 4 3 2 4 5 4 3 2 4 2 3 5 6 7 5 2 1 1 2 3 8 11 11 12 11 10 11 10 8 9 7 5 6 7 7 7 8 7 4 7 15 12 3 2 4 7 8 11 13 11 6 2 7 13 17 18 16 18 23 26 26 27 27 25 24 23 22 22 22 22 21 20 19 19 19 19
3 2 1 1 3 5 7 9 8 4 3 2 1 3 4 2 1 2 1 2 4 7 7 6 6 4 0 2 3 3 6 13 11 12 12 10 10 9 9 11 10 8 9 9 8 9 11 11 9 9 16 15 10 8 11 13 13 10 7 7 8 10 14 13 12 14 15 15 18 24 26 26 27 26 24 24 22 21 22 23 22 21 20 20 20 20
4 2 2 3 2 3 5 5 4 0 4 2 2 4 0 2 3 4 3 3 3 7 8 4 4 4 1 2 2 5 4 14 10 11 13 10 9 10 10 11 10 10 11 11 10 10 13 14 13 13 14 15 13 13 15 17 16 15 12 7 7 10 12 12 12 14 15 13 18 22 25 25 26 26 25 24 23 22 22 23 23 22 22 22 21 22
4 2 2 2 2 3 4 4 4 4 4 2 4 4 3 6 5 4 1 3 4 3 5 5 4 3 2 2 2 5 3 14 11 10 13 10 9 11 10 10 10 9 10 11 9 9 12 13 12 14 14 14 14 15 17 18 16 14 12 8 7 8 5 6 10 12 13 14 18 21 22 23 23 25 25 26 24 23 23 22 23 23 23 23 23 22
1 2 2 3 4 3 2 0 2 3 2 2 5 4 5 10 8 4 3 5 4 2 3 5 5 5 2 4 3 4 2 12 12 11 12 10 9 11 11 10 9 8 8 9 8 7 9 10 12 15 15 16 17 18 18 19 17 15 14 12 10 11 8 4 5 6 7 10 15 17 17 19 18 18 21 24 25 23 23 23 23 23 24 24 24 23
1 2 3 6 3 0 2 1 3 2 1 2 6 3 7 12 8 4 4 3 5 4 3 5 12 12 7 6 5 6 7 11 10 11 11 9 10 11 11 11 10 8 7 7 7 8 9 10 11 15 16 16 18 20 20 19 18 18 18 17 15 14 12 8 7 7 3 1 8 14 11 15 17 15 14 18 21 21 19 19 21 22 25 26 25 24
2 3 4 4 1 2 3 6 7 5 6 7 8 4 6 9 6 6 5 6 7 7 4 4 13 15 11 10 10 9 10 11 10 11 11 9 9 10 11 11 11 10 9 8 8 9 10 10 11 14 17 17 17 18 18 18 17 17 18 19 17 15 14 10 8 9 9 4 5 13 13 10 14 15 13 12 15 17 16 14 14 15 18 25 28 26
2 3 5 4 2 2 2 6 7 8 8 8 5 6 7 8 5 5 6 8 6 7 8 8 12 14 12 12 11 9 9 9 10 11 11 11 11 11 12 12 12 12 11 11 10 10 9 9 11 14 17 18 17 16 16 17 17 17 18 19 19 17 15 13 11 10 10 7 4 8 10 8 9 13 14 12 11 14 16 13 12 10 9 14 25 30
2 3 7 7 4 2 3 5 6 7 7 7 7 9 10 9 7 5 8 12 11 11 13 13 12 12 9 9 10 9 9 9 9 8 8 9 10 12 13 13 12 12 11 11 10 9 9 9 12 14 16 16 17 16 14 15 17 17 19 21 20 17 14 14 15 14 12 10 6 2 4 5 3 6 9 11 11 12 13 13 15 14 10 10 13 22
3 3 5 6 6 6 5 3 3 4 4 6 7 6 5 7 7 6 9 13 14 13 13 14 14 8 4 7 11 10 9 10 9 9 10 9 10 12 12 12 12 11 10 10 9 8 8 10 12 14 14 15 18 18 17 16 16 17 20 23 22 17 14 15 17 18 17 15 13 12 12 12 9 6 3 4 7 8 9 11 13 13 11 12 13 11
3 2 4 4 4 4 5 2 3 3 3 5 6 4 3 4 5 5 8 11 13 15 14 13 11 6 4 7 10 9 10 10 10 9 9 9 10 12 11 11 11 10 9 9 8 8 8 9 11 13 14 16 18 20 20 19 19 18 18 22 22 18 15 15 15 17 18 18 17 17 16 16 15 13 11 7 3 5 6 6 6 7 10 15 16 11
3 2 3 3 3 3 6 5 3 1 4 3 4 7 2 3 2 4 9 13 14 14 12 9 7 7 8 9 10 10 10 10 9 7 7 7 10 11 10 10 10 9 8 8 8 8 7 9 11 13 15 17 17 18 19 19 20 21 17 19 21 20 18 17 16 17 18 18 18 17 15 15 16 16 15 15 10 4 3 3 3 8 13 20 23 19
3 3 3 1 1 3 7 4 2 5 3 0 3 8 5 3 4 4 9 12 12 10 9 8 9 9 9 8 10 10 9 8 7 6 5 6 8 10 10 10 9 8 7 8 8 7 8 10 11 13 15 17 16 15 17 18 19 21 20 17 19 20 19 19 19 19 20 20 19 17 15 14 16 16 15 14 14 9 4 4 5 9 13 19 22 19
1 2 2 1 1 3 5 2 6 3 1 1 4 8 8 7 9 12 13 12 12 14 14 13 12 10 9 8 9 10 9 8 7 6 5 6 6 8 10 10 9 8 7 7 7 7 9 10 11 12 13 16 16 14 15 17 18 19 20 19 18 19 19 18 18 18 18 20 20 18 17 16 14 14 14 12 12 11 8 6 6 9 11 14 16 15
2 1 1 1 1 2 3 3 4 2 0 5 6 6 7 9 10 12 12 11 12 13 14 14 12 10 10 10 10 10 10 8 6 4 5 6 7 6 8 9 9 8 8 9 9 10 11 11 11 12 13 15 17 17 14 16 17 17 18 18 17 18 18 18 18 18 18 19 20 19 19 19 16 15 14 13 11 10 10 9 8 8 9 11 13 13
4 2 2 1 1 0 1 2 3 2 2 3 3 3 4 6 6 6 7 8 9 11 11 11 11 10 10 11 12 12 11 8 5 2 4 6 8 8 9 10 10 11 12 14 15 13 10 10 11 14 16 16 18 20 17 17 18 17 18 18 17 17 18 19 19 20 20 20 20 19 19 18 17 16 14 13 11 10 10 10 11 10 9 10 13 13
2 2 1 2 1 1 1 1 2 2 1 2 1 2 5 8 8 7 7 5 5 8 10 9 10 11 11 12 13 12 10 8 5 3 4 6 7 8 10 12 15 16 16 16 15 11 9 10 12 15 17 16 17 19 18 17 18 18 18 18 17 17 18 18 18 19 19 18 17 16 15 14 14 13 12 13 13 13 12 12 12 12 11 12 13 14
1 1 1 2 1 2 1 1 1 1 2 2 3 5 7 9 8 8 7 1 4 6 11 10 10 11 12 12 12 11 9 6 5 5 5 6 7 9 10 11 14 16 17 16 13 10 12 13 13 16 17 17 18 18 17 17 17 17 17 16 16 17 17 17 17 16 16 17 16 14 13 13 13 14 13 13 14 15 15 15 14 14 14 14 14 14
1 1 1 0 2 3 1 1 1 1 2 1 6 7 6 7 7 8 5 3 4 4 9 9 8 7 8 9 8 6 5 5 6 5 6 8 10 13 13 11 13 14 15 14 13 12 14 15 14 16 17 17 17 17 16 16 16 15 16 15 15 17 16 15 14 14 14 15 15 15 14 13 14 16 15 15 15 15 16 16 16 16 16 16 15 15
1 1 0 1 3 3 1 1 2 1 1 2 6 6 5 5 5 5 4 5 2 6 6 8 11 9 8 9 8 5 4 5 7 7 8 10 10 11 14 15 14 14 13 13 14 13 14 14 15 16 15 15 15 14 14 14 14 14 14 14 15 16 16 15 13 13 14 13 12 14 15 14 15 16 16 16 15 15 16 17 17 16 16 16 15 14
1 1 1 1 3 2 1 1 2 1 1 3 6 6 6 4 2 3 4 1 6 10 10 10 11 10 10 10 8 6 6 7 9 10 10 10 8 9 14 15 14 12 11 13 15 13 12 14 15 14 14 13 13 13 13 12 12 13 13 14 15 15 16 16 14 13 14 12 9 12 14 14 15 16 16 16 15 14 18 19 17 15 15 16 15 13
1 1 1 1 1 2 1 1 3 1 1 4 5 4 4 2 4 4 0 4 8 9 9 8 7 9 12 10 8 8 8 8 9 9 8 9 9 11 13 13 12 11 10 13 15 13 12 12 12 12 12 13 13 13 13 13 13 13 12 14 15 15 16 16 14 15 16 13 9 10 12 13 15 16 17 17 15 15 19 19 17 16 17 16 14 13
1 0 0 1 1 0 1 0 2 2 2 6 6 2 2 3 3 2 4 6 6 6 6 6 5 7 9 9 9 9 8 8 9 8 7 8 9 11 13 12 11 10 10 12 13 10 9 9 9 9 10 11 13 14 14 13 13 13 12 13 15 15 15 15 15 16 18 15 11 9 10 12 14 15 15 16 17 18 20 19 18 18 18 14 12 13
1 2 3 1 1 1 2 2 3 1 4 7 6 4 4 4 4 5 6 5 5 5 5 5 5 7 8 9 9 8 6 7 8 8 7 7 8 10 12 12 11 10 10 11 10 8 6 6 7 8 9 10 12 13 13 13 14 13 13 14 15 15 15 16 16 16 18 17 14 12 11 11 12 14 14 15 16 17 17 18 19 19 17 15 15 16
2 4 5 2 1 1 3 3 3 4 7 9 7 5 5 5 5 5 5 4 4 5 5 5 6 6 7 8 7 5 5 7 7 7 7 7 8 10 12 12 11 8 8 8 7 6 6 6 7 8 9 10 11 12 12 12 13 13 14 15 15 15 15 15 15 15 16 17 17 16 14 11 11 13 14 14 14 13 13 15 17 17 16 17 18 17
2 3 2 2 2 3 1 3 4 4 7 9 8 7 7 6 4 4 4 4 4 5 5 5 7 7 7 7 6 5 5 7 7 7 7 6 7 9 11 10 8 7 7 8 7 6 7 8 8 8 8 9 10 12 13 13 14 14 15 16 16 16 16 16 15 14 14 16 18 19 17 14 11 12 14 14 12 11 12 13 14 14 16 19 20 18
2 3 1 1 2 2 2 2 2 4 5 6 6 6 7 7 5 5 5 5 5 7 7 7 7 8 6 5 6 5 4 6 7 7 6 6 7 9 8 6 5 7 8 8 8 8 8 7 7 7 7 9 11 13 15 16 16 17 17 18 18 19 19 18 17 15 15 16 17 19 19 15 12 12 13 12 11 12 13 15 15 15 16 17 17 16
1 1 1 1 1 1 0 3 4 4 5 4 3 4 6 8 8 6 6 6 7 7 7 7 7 7 6 6 6 5 4 6 7 7 6 6 8 9 8 5 5 7 8 8 8 8 6 5 5 7 9 11 13 14 15 16 17 18 18 18 19 19 19 20 19 17 17 16 16 18 19 16 12 11 12 12 12 13 14 16 16 16 17 17 16 16
2 0 1 1 0 0 1 4 4 2 3 1 3 3 4 5 9 8 7 7 8 7 7 6 4 4 3 5 9 9 5 5 8 8 6 7 9 11 8 4 4 7 8 8 7 5 4 4 6 9 11 12 13 14 14 15 16 17 18 19 20 20 20 21 20 18 17 17 16 18 20 17 14 12 12 13 14 14 15 16 16 16 16 17 17 17
1 1 2 2 1 2 2 1 2 2 2 1 3 5 6 5 5 7 6 7 8 9 9 8 7 5 1 2 9 12 7 6 10 8 4 5 10 10 6 4 5 7 8 6 4 3 4 7 10 11 12 12 13 14 15 15 14 16 18 19 21 22 22 22 21 19 18 17 17 18 20 21 20 17 15 14 13 13 15 18 19 17 16 16 17 17
Wind_Direction
197 192 187 211 227 227 225 233 242 254 267 258 225 175 146 153 176 184 169 158 169 145 167 196 128 148 171 150 139 72 54 51 44 51 40 20 117 166 173 152 158 174 162 143 155 180 165 142 144 143 143 146 149 154 155 155 155 155 154 152 153 157 158 155 155 157 152 150 153 157 160 161 164 165 159 157 158 163 170 168 168 174 177 172 161 156
195 203 216 212 214 232 235 233 241 253 268 272 267 160 142 146 158 173 158 153 157 93 175 186 132 163 181 143 107 81 83 38 33 44 33 25 39 231 187 155 158 175 160 146 162 182 157 141 145 143 143 145 147 152 155 156 156 155 155 154 158 160 161 161 160 161 159 157 158 160 163 164 164 165 163 168 170 171 173 170 168 171 177 176 168 163
194 220 229 220 211 223 239 247 246 246 255 266 277 135 134 134 130 148 152 144 133 96 152 138 120 166 174 125 85 75 100 71 69 87 25 19 45 321 249 162 161 171 164 151 167 179 152 142 146 143 143 144 147 151 154 157 157 156 157 159 162 163 164 164 161 163 162 161 165 166 165 164 164 165 165 168 170 174 177 174 169 168 175 178 174 173
183 219 229 233 224 212 226 247 251 248 245 248 253 212 133 140 135 145 155 139 131 126 121 119 120 128 134 117 73 22 62 83 134 132 23 339 354 333 309 266 175 173 165 156 167 171 149 145 145 143 144 145 149 152 155 159 158 158 160 162 165 166 166 166 165 167 165 163 167 169 168 165 164 167 169 168 167 178 183 177 173 172 176 178 177 180
208 207 213 231 242 223 216 230 241 245 239 240 242 220 146 152 151 151 150 130 96 97 123 130 113 89 170 158 98 1 39 115 132 111 301 287 322 14 310 309 263 185 165 159 170 167 148 148 146 144 146 148 152 154 158 163 162 162 163 166 168 166 167 170 171 170 166 165 166 165 163 160 161 166 171 170 167 178 183 177 177 179 181 181 180 180
228 214 200 211 235 238 227 223 230 230 221 241 246 248 166 150 140 139 145 134 98 108 167 158 101 98 184 166 141 53 8 158 140 137 225 284 330 341 264 279 295 213 167 159 170 166 149 150 149 146 148 151 155 158 163 166 167 166 166 168 170 168 170 174 173 171 169 167 164 162 160 157 158 163 173 174 169 177 183 177 177 179 181 184 182 177
233 232 212 202 216 232 236 231 228 220 208 219 213 243 61 118 127 143 154 153 134 162 200 190 119 120 167 148 153 149 170 205 161 158 186 237 278 286 238 232 287 237 172 155 169 170 150 151 154 151 151 154 158 162 166 169 171 171 169 171 171 170 173 175 174 173 173 169 164 164 164 164 165 167 175 177 172 180 186 179 178 177 178 183 184 180
217 234 235 208 204 221 227 231 233 206 183 266 196 175 148 127 139 163 169 174 158 143 190 190 117 111 152 144 146 148 159 178 186 182 173 203 233 245 241 228 293 266 188 156 167 176 153 154 159 157 155 156 160 164 168 172 174 173 172 173 173 172 175 176 175 176 176 172 169 166 163 167 172 173 176 180 178 182 184 179 181 179 177 184 187 186
196 227 244 213 203 224 209 210 248 183 154 264 252 177 166 150 155 178 177 177 156 140 166 174 129 109 125 129 131 150 158 163 187 196 178 193 215 224 237 233 105 315 261 169 168 175 156 155 161 162 159 159 162 167 171 174 175 174 174 176 174 175 178 177 176 177 178 176 172 167 163 165 170 174 176 181 183 181 181 181 184 182 178 183 189 188
185 216 241 223 200 217 187 187 246 239 183 236 261 273 224 162 163 189 186 156 158 158 171 175 163 116 110 154 156 179 182 172 184 195 186 195 204 209 234 259 43 319 296 258 168 172 160 156 162 165 164 163 164 169 173 174 173 172 175 178 177 177 180 180 179 179 180 181 176 169 169 170 171 175 172 175 182 181 180 181 183 183 179 182 187 185
208 198 228 247 218 194 173 175 217 241 241 219 229 262 253 159 158 177 160 53 162 204 187 176 170 128 114 160 174 202 206 168 163 177 189 200 197 189 227 310 300 270 273 22 55 167 160 157 160 165 170 169 166 170 173 171 171 172 175 179 179 180 182 181 181 183 183 184 180 173 174 177 176 175 171 170 176 177 177 180 183 186 184 183 183 183
249 210 205 233 237 196 171 184 203 234 249 232 217 244 48 66 55 108 115 336 228 284 216 153 138 98 93 155 172 196 195 161 162 174 177 186 180 156 190 259 256 256 242 104 61 32 146 153 158 163 175 176 166 169 172 168 169 172 175 179 182 182 184 183 183 185 185 185 183 179 180 184 179 174 172 171 170 173 177 180 182 184 185 183 181 184
256 272 190 178 226 325 245 214 203 243 268 242 209 189 123 121 35 109 166 184 203 263 107 112 103 76 67 120 137 151 158 155 155 145 148 160 157 147 195 235 240 227 211 133 99 69 81 133 158 163 176 180 167 169 171 167 169 172 175 179 182 184 185 185 184 185 186 186 187 186 184 186 182 176 176 175 170 172 178 180 179 180 184 185 183 188
160 303 237 141 87 218 250 256 127 344 311 276 179 166 148 148 144 170 182 172 225 234 116 99 91 89 104 98 121 133 129 126 118 98 114 145 158 169 193 214 215 203 195 131 119 119 90 77 138 165 178 179 168 170 169 166 169 172 176 181 183 186 187 187 186 186 187 189 191 191 188 188 186 179 179 181 177 177 179 179 181 182 186 188 187 192
153 277 219 154 78 178 209 235 9 316 265 218 263 339 193 155 158 185 176 180 213 164 109 82 83 129 159 117 113 115 104 104 104 95 102 121 137 164 188 195 169 135 138 126 124 116 103 98 83 157 183 177 167 171 171 167 171 173 176 183 185 186 188 189 190 189 190 192 193 193 190 189 189 183 181 186 185 184 183 184 187 187 190 194 194 198
175 188 163 164 174 201 200 191 292 327 270 205 215 271 264 217 173 205 212 199 187 113 81 26 76 122 106 78 76 93 100 105 106 101 103 98 93 121 148 138 97 78 87 89 85 78 65 75 95 75 215 188 171 173 175 169 171 174 177 183 186 188 189 190 191 192 193 194 194 194 192 191 192 189 186 186 188 189 187 188 192 193 195 199 200 202
154 213 178 160 161 227 215 142 146 117 61 223 205 233 269 240 191 236 280 244 181 99 86 95 114 117 87 57 41 61 85 101 106 98 86 76 69 68 74 90 74 25 28 38 40 57 40 17 29 30 350 238 176 176 182 177 174 176 178 181 185 188 190 192 192 194 196 197 197 196 195 193 194 194 191 189 189 191 192 192 194 196 198 200 200 202
69 291 221 163 151 200 286 28 271 233 199 165 173 304 313 319 312 117 271 283 65 97 105 121 123 126 120 92 74 85 96 115 113 98 79 61 59 53 44 72 91 57 38 25 29 33 16 29 37 34 36 330 262 181 178 179 178 179 180 182 184 186 190 193 193 195 197 199 200 198 197 197 196 196 195 193 193 194 195 194 194 198 199 200 200 202
15 316 269 163 139 127 94 63 288 264 251 176 25 328 324 327 309 108 164 254 99 109 105 52 64 71 69 131 145 143 145 130 111 97 84 65 55 51 43 58 69 54 40 25 30 20 7 54 65 50 132 160 305 199 151 160 171 175 178 181 184 187 190 193 194 196 198 200 202 201 200 201 199 199 198 196 197 197 198 197 197 200 199 198 200 201
319 274 283 290 127 146 151 86 55 282 296 360 355 311 235 196 233 207 205 210 126 121 137 108 41 312 334 136 142 143 136 118 108 99 90 78 66 56 47 56 63 52 40 27 30 27 32 75 140 220 154 72 9 12 81 121 147 157 165 174 182 187 189 190 194 197 199 201 203 203 202 202 202 202 200 199 199 199 201 202 201 202 201 198 197 200
294 230 184 204 193 180 157 118 191 233 267 164 268 267 255 265 238 229 253 215 138 134 149 135 124 259 210 191 170 144 126 111 108 105 95 87 78 66 54 56 61 59 54 43 39 38 47 82 156 128 71 66 7 340 25 77 135 150 154 161 177 190 187 188 191 196 202 203 202 204 205 203 203 203 202 202 204 204 203 204 204 202 204 204 201 201
315 285 145 154 187 193 169 180 208 227 235 210 205 227 239 256 249 248 287 291 112 121 143 140 131 137 165 181 233 169 124 109 104 103 97 90 83 74 65 60 55 58 61 55 53 50 50 51 28 61 86 99 134 163 75 68 114 150 162 159 152 186 210 204 198 197 210 216 208 204 206 205 203 204 204 204 209 209 205 205 206 204 206 209 205 204
314 312 11 199 201 187 182 186 191 220 286 309 243 246 248 259 101 104 282 310 55 83 105 111 111 127 146 37 341 300 111 106 101 100 97 90 84 79 70 63 52 48 55 51 49 54 53 41 26 58 89 92 81 78 79 77 82 95 132 161 165 184 200 209 212 207 212 230 230 213 206 205 204 204 206 207 210 212 207 205 208 207 208 210 208 208
315 345 356 303 254 163 164 175 162 120 340 347 242 246 279 64 86 111 167 175 95 98 109 94 94 119 284 23 2 289 121 111 109 106 103 97 89 81 68 62 52 42 48 49 44 56 64 53 35 42 71 84 77 66 71 80 83 84 95 124 165 183 187 193 212 216 207 228 254 233 207 202 204 203 206 209 211 214 210 207 209 210 211 211 210 212
316 2 3 340 11 56 47 19 8 349 339 326 259 264 69 61 49 47 65 94 68 61 101 106 108 116 226 162 138 274 148 118 116 111 106 105 100 92 78 67 57 45 47 48 40 49 68 68 53 43 49 63 66 56 59 73 87 96 99 109 141 155 157 184 209 215 204 216 247 237 204 194 200 201 205 210 211 215 215 210 211 212 212 212 212 214
327 23 38 69 64 60 78 137 263 278 284 264 270 283 56 52 49 65 64 74 81 37 73 109 125 122 140 120 110 271 154 111 106 99 97 97 96 95 92 81 69 57 51 50 43 45 62 71 70 64 54 48 49 48 51 62 73 82 83 81 103 127 131 150 180 198 213 223 244 243 209 188 194 198 204 209 209 214 217 216 215 213 212 213 214 215
7 35 73 95 92 128 151 220 270 272 343 308 279 277 67 53 43 74 84 86 117 103 62 120 135 136 143 138 165 209 151 113 107 101 97 99 100 98 99 93 84 73 62 56 51 51 57 59 61 67 65 56 52 52 51 52 59 67 70 74 86 105 112 115 126 120 96 244 268 275 244 200 200 205 204 207 209 212 216 217 219 219 215 212 213 216
35 33 50 104 181 286 13 355 342 5 9 332 301 303 80 79 42 21 71 120 126 97 66 128 135 136 154 162 166 165 133 116 118 115 110 112 112 110 106 98 92 84 72 61 51 49 55 54 50 57 61 58 55 57 56 52 56 61 61 64 71 76 79 79 92 105 101 122 246 282 284 240 221 225 223 218 216 217 219 219 223 230 226 217 212 214
76 37 358 333 261 245 7 359 357 15 7 349 354 13 36 73 67 21 81 120 123 112 130 153 139 133 144 149 139 126 113 110 114 120 128 133 125 114 105 95 88 83 74 64 52 44 48 51 50 52 56 56 51 54 59 55 55 62 61 61 61 59 63 65 65 83 101 117 179 260 284 273 244 241 241 240 233 226 226 228 234 249 262 235 218 214
61 29 358 353 351 347 16 18 12 15 7 4 41 46 21 20 33 42 90 106 102 114 136 140 124 116 121 121 109 99 95 91 81 79 100 119 115 104 100 96 90 83 76 70 58 43 40 44 49 51 54 57 51 47 54 54 56 65 67 65 63 55 58 68 67 72 83 82 80 55 354 351 306 260 251 251 252 244 236 237 241 249 282 305 259 225
44 10 349 12 17 348 349 19 351 339 4 7 18 48 36 1 5 44 88 106 108 113 124 120 110 100 84 91 92 89 88 85 78 69 64 70 80 85 86 85 85 81 77 73 62 46 36 32 38 41 42 49 49 42 41 44 51 64 72 72 69 60 53 61 65 66 65 60 55 49 39 30 25 19 354 272 262 266 262 256 251 248 260 289 297 268
46 347 328 32 48 323 311 312 273 293 16 20 350 351 50 29 358 36 93 114 121 123 121 115 116 124 119 103 95 88 85 80 76 74 68 67 77 83 81 77 75 75 75 74 64 52 43 31 28 30 33 43 49 43 36 34 36 45 67 78 75 64 54 55 60 59 54 50 49 47 43 39 35 31 30 22 336 290 293 287 263 241 237 246 258 265
12 1 350 45 64 300 292 280 258 346 29 30 333 325 358 106 24 29 95 118 129 133 133 132 140 144 135 123 111 102 94 86 83 84 82 84 87 88 85 79 73 69 70 73 66 55 48 37 25 24 33 42 48 47 41 36 32 33 50 76 76 65 56 54 54 53 48 42 39 36 37 40 38 32 29 27 22 350 313 327 261 238 234 235 239 240
10 8 356 27 75 288 275 268 56 50 36 65 342 341 346 150 143 65 86 114 130 126 117 121 130 131 132 129 122 115 105 96 97 94 86 89 97 101 100 91 84 79 73 74 72 57 46 40 27 27 42 45 42 48 50 43 38 36 39 57 70 64 55 51 50 49 45 40 37 33 30 35 37 31 23 21 22 15 336 306 275 259 249 241 243 248
30 352 330 333 33 297 288 47 73 50 291 84 25 9 21 64 94 86 78 93 116 117 115 123 130 134 139 134 122 116 111 107 105 96 79 66 76 104 112 106 102 100 88 82 78 57 41 33 21 22 46 52 40 38 53 54 48 44 40 45 58 60 52 46 45 45 42 38 35 33 31 31 34 30 19 11 12 12 2 335 296 276 265 255 258 266
15 334 292 276 110 315 329 74 110 196 82 54 31 10 28 52 75 87 83 88 107 117 122 129 136 144 144 133 122 118 120 119 108 101 93 62 49 79 108 111 109 106 106 105 94 68 41 25 14 18 42 54 36 24 41 56 51 45 42 41 50 56 51 45 41 38 35 32 30 28 27 26 26 21 13 5 359 359 1 355 331 303 283 273 275 277
21 19 353 9 118 152 354 93 124 132 68 33 16 3 32 56 73 90 98 105 118 126 130 135 144 149 139 129 131 134 135 128 111 109 113 82 65 73 88 93 91 92 101 104 94 79 53 27 23 34 47 48 31 24 37 50 46 43 39 34 38 45 44 42 38 33 28 25 23 23 22 21 19 11 1 357 352 348 350 351 344 332 313 295 291 292
39 74 48 50 146 219 101 67 77 104 208 256 167 100 63 69 78 86 98 121 153 142 136 136 140 141 138 138 144 145 139 132 132 161 151 115 98 88 81 75 74 77 82 83 77 70 61 43 36 47 53 43 29 31 40 40 36 37 32 25 29 35 35 34 34 31 26 21 17 18 17 15 11 2 352 350 350 348 346 345 341 337 329 318 309 302
72 95 65 65 285 272 140 137 112 123 242 257 101 86 72 78 75 69 82 157 233 146 134 138 138 143 152 156 151 146 146 147 146 160 163 138 109 88 76 66 65 70 73 70 65 60 59 54 46 49 51 39 29 31 32 27 26 28 25 18 21 28 28 26 26 24 20 17 14 12 10 6 0 356 350 346 346 350 349 346 342 340 338 334 327 316
347 355 27 89 275 291 344 121 84 83 241 155 96 80 80 90 77 72 92 243 259 132 138 145 131 123 135 134 123 120 142 154 147 146 137 115 96 88 88 79 65 64 64 61 60 57 54 53 49 46 41 34 30 29 25 21 19 18 15 11 15 21 17 13 16 15 9 9 11 9 6 0 354 353 352 348 345 349 351 347 343 342 342 340 335 326
288 298 232 251 276 300 350 18 68 66 242 117 92 74 69 74 72 97 165 242 342 61 83 108 109 96 90 97 95 91 107 117 114 109 100 96 92 91 93 87 74 65 60 59 60 53 45 43 42 40 35 31 30 28 24 20 17 12 8 4 9 13 6 359 3 3 358 1 6 4 3 360 352 347 346 346 344 342 343 343 341 340 342 341 333 322
197 232 198 245 282 286 239 163 78 58 318 79 76 53 43 58 107 176 213 258 60 63 62 83 103 100 89 90 97 108 116 104 94 94 94 94 95 90 86 82 77 70 63 65 64 52 40 38 33 28 26 24 24 25 22 20 19 12 4 2 6 4 357 354 357 353 347 346 356 3 1 357 351 343 338 339 340 337 336 338 339 341 343 341 334 323
173 194 184 201 255 259 234 97 93 111 4 71 79 43 22 79 182 201 156 58 68 74 75 77 86 94 98 101 99 97 98 93 89 90 93 95 97 94 90 86 82 75 67 67 65 53 41 38 28 18 16 13 14 18 18 17 18 13 5 6 4 356 348 347 347 346 341 333 336 358 359 350 345 342 337 335 331 330 334 337 338 341 342 340 335 329
348 339 80 38 342 339 50 353 213 211 51 63 82 90 72 122 155 133 81 74 68 71 83 80 72 86 101 107 102 98 100 102 103 101 97 99 101 100 100 98 90 82 75 72 68 55 40 35 26 17 14 10 9 12 12 11 11 7 4 3 358 349 344 342 339 340 341 335 331 343 348 343 338 337 338 335 328 327 335 338 337 338 341 349 358 358
11 155 153 133 298 189 125 158 222 187 83 81 92 106 98 88 85 88 91 91 87 87 91 93 83 79 88 98 102 107 117 117 118 119 113 108 105 103 106 107 99 92 88 82 74 61 47 40 28 18 14 10 8 6 5 5 3 359 357 355 351 345 342 342 341 339 337 335 333 332 332 334 332 330 331 329 323 324 333 337 338 341 349 360 8 9
130 139 151 157 334 51 102 144 171 139 115 113 114 115 104 75 58 81 97 100 118 125 118 119 118 100 93 101 104 107 118 116 114 117 114 107 107 108 110 110 106 105 104 95 85 74 60 46 32 21 14 7 3 0 359 358 356 353 350 346 345 343 339 338 339 335 332 330 329 326 321 320 324 323 321 320 319 320 327 330 330 335 343 346 346 351
52 57 108 147 99 71 103 207 192 145 126 128 132 134 126 104 70 66 73 77 114 125 105 104 125 125 109 107 111 118 127 123 114 109 105 103 107 107 105 106 111 116 114 104 95 82 64 44 28 17 6 0 2 3 2 359 357 354 350 346 344 342 339 336 333 332 330 327 324 321 315 310 312 313 310 316 326 331 333 333 329 326 329 331 332 332
28 15 19 145 116 138 185 199 87 85 97 114 129 138 140 134 115 88 79 75 85 100 96 89 103 115 114 111 112 113 117 117 116 117 120 119 117 114 117 130 136 120 106 99 89 72 55 36 15 4 4 11 16 12 6 2 358 352 347 344 342 340 338 336 332 327 326 323 319 317 312 305 302 306 310 322 335 334 330 331 330 325 321 320 321 322
77 28 62 84 24 296 38 24 32 70 85 73 78 109 137 150 146 130 121 110 94 95 100 90 91 115 140 146 137 135 135 124 121 125 132 131 133 136 142 146 130 111 98 89 78 62 42 18 6 15 25 26 20 12 5 357 351 346 341 339 339 337 334 332 328 324 321 320 318 316 313 305 299 306 321 334 332 322 317 319 321 320 316 312 311 314
105 357 25 98 128 262 49 14 6 80 118 34 356 34 70 130 146 146 140 133 128 124 121 116 110 116 134 149 148 147 144 123 119 122 125 131 136 140 141 132 112 108 95 77 60 39 22 25 30 33 30 20 12 8 1 353 347 344 342 340 339 336 329 322 319 317 316 315 312 312 312 309 306 309 316 319 315 312 311 310 311 313 311 308 307 307
92 36 46 82 151 166 145 77 18 84 138 292 349 20 23 44 108 141 156 157 155 152 147 149 155 152 122 135 146 147 144 130 130 132 135 142 140 140 143 142 117 101 84 62 32 15 36 44 40 34 24 13 8 2 354 349 348 347 344 342 341 340 333 323 311 304 303 306 306 304 307 310 308 301 295 294 298 306 313 312 310 312 312 310 310 308
Height
751 766 773 773 772 765 759 755 753 750 748 754 756 762 776 783 786 782 779 780 778 794 804 796 799 803 799 798 796 795 794 797 800 799 799 798 795 794 794 796 798 799 797 796 800 802 804 806 809 812 815 818 821 824 827 829 831 834 835 839 841 843 844 845 846 848 849 850 851 852 853 853 852 852 853 853 854 855 856 857 858 858 859 860 860 861
753 771 772 763 761 755 751 748 745 748 748 749 750 757 771 777 779 775 774 779 779 795 807 798 802 805 800 801 798 797 799 802 804 803 803 801 798 797 795 795 797 797 795 795 800 801 802 806 808 812 814 817 821 823 826 828 830 833 835 838 840 842 844 845 846 847 849 850 850 852 852 853 854 854 854 855 855 856 857 858 859 859 860 860 861 862
765 771 762 751 749 748 748 744 743 747 747 750 749 754 771 773 774 776 771 777 784 793 803 804 808 808 801 802 802 799 801 805 805 802 803 804 802 801 799 796 795 796 797 796 799 800 801 805 807 811 814 817 820 823 826 828 830 832 834 836 839 841 843 845 846 847 848 850 850 851 852 853 854 855 855 856 856 857 857 858 859 860 861 861 862 862
773 766 752 744 742 745 749 745 744 747 746 751 750 754 770 769 774 785 780 781 785 785 798 808 812 812 806 804 805 803 802 804 805 800 800 803 804 804 801 798 796 796 797 798 798 799 800 804 807 810 813 816 820 823 825 827 829 831 833 835 837 840 843 844 846 847 848 849 851 852 853 854 855 856 856 856 857 858 858 858 859 860 861 861 862 862
763 751 740 741 742 743 749 747 746 751 751 749 746 749 763 763 766 776 778 784 787 787 795 802 815 821 813 811 811 805 805 806 806 803 803 803 801 801 800 799 797 795 795 798 799 798 800 803 806 809 813 816 819 822 825 827 829 830 832 834 836 839 842 843 845 846 847 848 850 851 853 855 855 856 857 857 858 858 858 859 859 860 861 861 862 862
753 738 733 741 744 741 747 748 744 748 753 751 743 738 744 752 760 767 771 783 800 810 799 791 821 835 815 813 818 811 809 810 808 808 809 808 802 800 802 800 797 795 793 795 797 797 799 802 805 809 812 815 818 821 824 826 828 830 832 834 836 838 840 843 844 845 847 847 849 850 852 854 855 856 857 856 857 858 858 859 859 860 861 861 862 862
744 732 730 739 743 742 745 747 739 738 752 757 742 730 735 746 758 766 769 782 803 812 792 779 812 836 820 814 817 813 813 811 809 809 809 809 805 803 803 800 798 796 792 793 796 796 799 802 805 808 811 814 817 821 824 826 828 829 832 833 835 838 840 842 844 845 846 847 848 849 851 852 854 855 856 857 857 857 858 859 860 861 861 862 862 863
738 735 734 735 739 744 747 747 736 730 749 755 733 726 739 748 756 763 765 777 786 788 787 781 793 823 830 820 813 811 816 815 811 810 808 808 806 804 803 799 798 797 793 793 795 796 797 801 804 807 811 813 816 820 823 826 828 829 831 833 835 837 839 841 843 844 845 846 847 849 850 852 853 854 856 857 858 858 859 859 860 861 862 862 863 863
731 737 738 734 740 745 742 739 728 726 744 744 725 725 735 742 752 757 761 773 776 783 803 794 785 818 837 822 812 813 817 819 815 811 810 808 806 804 802 799 798 797 794 792 793 795 797 799 803 806 809 813 815 819 822 824 826 828 830 833 834 836 838 840 842 843 845 846 847 848 850 851 853 854 855 857 858 858 859 859 860 861 862 863 863 864
727 728 726 728 738 741 733 728 723 728 739 731 723 728 730 735 745 752 763 772 776 789 806 795 785 815 839 828 819 821 819 818 813 808 807 806 805 804 801 799 797 796 795 793 791 793 796 798 802 805 808 812 814 817 820 823 825 827 829 832 834 835 837 839 841 842 844 846 847 848 849 851 852 853 855 856 857 858 859 860 861 861 862 863 863 864
720 716 717 722 727 726 723 723 721 725 728 723 728 735 735 738 741 749 757 761 780 794 789 783 781 799 830 834 823 818 811 807 807 805 804 803 803 803 801 799 799 798 796 794 793 793 794 797 800 804 807 810 813 816 818 821 823 825 828 830 832 834 835 837 839 841 843 845 846 847 849 850 851 853 854 855 856 857 859 860 860 861 862 862 863 864
723 723 723 716 713 713 719 725 722 720 720 724 733 740 748 754 751 760 764 767 794 799 774 771 775 790 823 830 816 809 800 796 801 802 801 803 804 804 802 800 798 798 796 794 795 795 794 796 799 802 806 808 810 813 816 819 821 824 826 829 831 833 834 836 838 840 842 844 845 846 848 849 850 852 853 854 855 857 858 859 860 861 862 863 863 864
733 731 723 714 710 712 725 735 731 727 725 730 738 746 765 777 778 787 789 788 800 791 770 769 777 797 819 812 802 802 796 794 797 798 799 801 804 805 803 801 799 797 796 794 795 797 795 796 799 800 804 807 808 811 814 817 819 822 825 827 829 831 833 834 836 838 840 842 844 845 847 848 850 851 852 853 855 856 857 859 860 861 862 863 863 864
747 738 723 723 723 715 726 742 747 744 737 740 746 754 772 787 800 809 801 796 795 783 772 768 780 811 821 804 797 797 792 791 793 796 799 799 801 805 802 800 799 797 795 795 795 796 796 796 799 799 802 805 807 809 812 815 818 820 823 825 827 829 831 833 835 837 839 841 842 844 845 847 849 850 851 853 854 856 857 858 859 861 862 863 863 864
761 760 737 732 732 722 725 734 741 742 740 740 738 746 763 771 788 801 795 793 792 785 781 776 791 821 823 808 801 794 790 791 793 796 797 798 799 803 802 799 798 798 796 795 794 795 795 796 798 800 801 803 805 808 810 813 815 817 820 823 825 828 830 831 833 835 837 839 841 843 845 846 848 849 851 852 853 855 856 858 859 860 861 862 863 864
756 759 734 725 724 721 727 726 724 736 746 741 731 747 761 753 759 773 773 770 771 788 801 796 802 810 805 803 800 794 794 794 796 799 798 799 798 800 803 800 798 799 796 794 795 795 796 797 799 800 801 803 804 806 808 810 813 815 818 821 824 826 828 830 832 835 837 839 840 842 844 845 847 849 850 851 853 854 856 857 858 860 861 862 863 864
756 754 729 723 726 720 723 724 720 734 751 746 742 756 752 735 742 763 769 758 761 800 819 806 808 808 803 811 807 801 805 802 801 804 803 802 799 799 802 800 800 802 799 797 796 795 796 798 799 800 801 803 804 805 806 808 810 813 815 819 823 825 828 830 831 834 836 838 840 841 843 845 846 847 849 850 852 853 855 857 858 859 860 861 863 864
754 758 733 725 736 725 714 722 722 722 736 748 756 755 740 732 738 755 775 773 777 813 824 810 816 818 820 828 818 810 816 812 807 806 805 805 802 803 803 800 802 803 802 800 797 797 797 798 800 800 800 802 805 806 806 807 809 810 813 816 820 823 826 829 831 833 836 837 839 841 842 843 844 846 847 849 850 852 853 855 856 858 859 860 862 863
747 763 745 724 735 730 716 729 739 728 724 737 747 741 743 760 762 759 773 781 793 822 832 829 829 824 827 831 820 817 819 813 807 805 807 808 806 806 805 803 804 804 803 802 800 800 799 799 801 800 799 801 805 808 808 808 810 811 813 815 817 821 823 827 830 832 835 837 838 840 840 842 843 844 846 847 849 851 852 853 854 856 858 859 861 862
744 763 761 733 728 733 730 741 755 749 734 733 740 739 743 758 762 760 761 765 790 824 835 840 843 835 830 824 816 816 812 807 808 807 809 810 809 809 807 806 806 805 805 804 803 802 800 800 800 799 801 803 806 811 810 809 810 812 814 816 818 820 821 825 829 831 834 835 837 839 839 841 842 843 844 846 847 849 850 851 852 854 856 857 859 860
743 755 764 746 732 740 748 749 751 753 749 747 754 755 751 748 747 754 753 746 771 810 825 836 847 840 824 815 813 811 804 804 806 806 809 810 809 810 808 808 808 807 808 807 805 805 802 801 801 802 806 807 808 811 812 812 811 810 813 815 818 822 823 824 826 829 833 835 836 838 838 839 840 841 843 844 845 846 848 849 850 852 854 855 857 858
750 753 757 754 748 751 752 743 737 741 744 748 754 755 753 751 750 762 768 751 754 786 804 819 842 840 819 811 812 806 801 804 804 805 810 810 810 811 809 808 809 808 809 808 807 807 805 803 803 806 808 808 809 811 812 813 812 811 812 813 816 822 826 827 827 828 832 834 836 837 837 838 839 840 841 842 844 844 845 847 848 850 852 853 854 856
748 751 755 756 752 748 742 733 731 735 734 738 746 745 744 748 752 769 785 774 767 781 789 802 830 836 818 810 811 806 801 802 804 805 808 811 811 810 809 808 808 808 809 809 808 808 808 807 806 807 808 809 811 811 811 813 813 812 814 815 817 821 824 827 827 828 830 834 837 836 836 837 837 838 840 841 842 843 843 845 846 848 849 850 852 854
746 754 761 761 748 738 735 730 729 731 735 742 745 739 741 747 749 758 768 770 778 789 793 810 834 835 819 811 812 810 804 802 805 806 808 813 813 811 812 811 810 811 810 810 810 809 811 812 810 809 809 811 814 813 812 812 811 812 813 816 818 820 822 824 824 826 828 833 838 837 834 834 835 836 838 839 840 841 842 843 844 846 847 848 850 852
756 761 766 772 769 762 758 755 750 744 744 751 749 739 739 743 744 750 756 764 783 792 794 814 837 833 818 812 812 812 807 803 805 806 807 812 812 812 814 814 813 814 813 813 814 813 814 815 815 814 813 814 815 815 813 812 811 811 813 815 817 819 823 825 825 827 828 832 838 838 833 832 833 834 835 836 838 839 840 841 842 843 845 846 848 849
758 763 766 780 793 794 790 783 773 761 753 751 748 742 743 745 748 756 766 777 792 797 796 812 830 828 817 813 816 815 809 805 806 806 808 810 811 812 814 816 818 818 817 818 817 816 815 816 817 817 817 815 814 814 815 814 813 813 814 816 818 819 823 826 827 829 830 832 837 836 831 829 831 832 832 833 835 837 839 840 840 841 842 844 846 847
757 762 763 774 784 785 783 775 762 756 758 757 751 746 747 750 751 756 772 786 790 797 807 809 813 822 821 818 821 818 810 808 808 809 811 812 812 813 814 817 820 820 820 820 818 817 816 815 816 817 817 817 815 814 815 815 814 815 815 817 819 821 822 824 824 825 826 829 833 835 830 826 828 829 830 831 832 834 836 838 839 840 841 842 843 845
763 769 765 765 768 765 764 762 754 752 758 758 753 751 750 752 754 758 774 786 784 799 820 812 802 816 822 816 815 812 806 807 809 809 811 813 813 814 815 817 819 821 822 821 819 818 816 816 817 816 818 818 818 817 817 817 818 817 817 818 820 822 823 824 824 822 822 824 829 834 831 826 825 827 828 830 832 833 834 836 838 839 840 841 841 842
768 776 769 764 764 760 757 757 755 755 758 756 755 756 754 754 758 762 771 776 777 795 814 808 801 810 812 806 806 804 803 805 806 806 808 810 812 813 815 818 820 822 823 823 822 820 818 819 818 818 820 820 820 821 821 821 821 820 820 820 821 823 824 825 826 825 824 825 828 832 831 827 825 825 827 829 831 832 834 835 837 838 840 841 840 840
768 776 771 767 768 763 758 759 758 759 762 760 759 760 759 759 760 762 768 771 775 788 797 797 802 807 803 801 802 801 801 803 803 805 807 808 810 812 815 819 821 823 825 825 825 822 821 820 820 820 821 821 822 822 822 823 823 822 822 822 822 824 824 825 825 826 827 828 829 830 830 827 825 825 827 828 830 831 832 833 835 837 839 840 839 838
768 777 770 767 776 774 763 761 763 763 765 766 766 764 763 765 764 764 771 775 780 792 795 796 809 814 805 800 801 801 802 803 807 811 811 811 812 814 817 820 822 825 826 827 827 825 824 822 822 821 821 822 823 823 823 824 823 824 824 823 824 825 824 825 825 825 827 828 828 828 828 826 825 826 826 827 829 830 831 832 833 834 835 835 836 836
770 777 770 770 787 787 770 766 767 764 765 771 774 769 766 770 769 768 774 778 783 795 802 808 818 818 807 801 803 804 805 808 813 815 815 815 816 817 821 822 823 826 828 829 829 828 827 825 825 824 824 824 824 824 824 825 824 825 825 826 827 826 826 826 827 827 827 827 827 826 825 825 825 826 827 827 828 829 830 831 831 830 829 829 831 832
771 778 777 780 794 791 775 769 767 769 781 790 783 773 768 769 771 771 775 777 780 789 801 811 815 810 803 802 806 809 810 813 816 816 816 818 818 820 823 824 825 827 828 830 831 830 830 829 828 828 827 827 827 827 827 827 826 827 827 828 829 829 828 829 828 828 828 827 827 826 825 825 825 826 828 828 828 828 829 830 829 827 825 825 825 827
773 779 782 783 792 794 780 768 771 788 805 801 781 769 765 764 768 777 781 780 780 785 792 800 802 801 801 803 807 812 813 814 815 815 815 817 819 822 824 824 827 828 828 830 831 831 832 831 830 830 829 830 830 830 830 830 830 830 830 830 831 831 831 830 829 829 828 827 826 826 826 825 823 825 828 829 829 829 828 828 827 825 824 822 822 825
777 781 784 783 789 793 782 778 797 814 806 785 771 765 763 761 765 776 782 781 782 786 790 796 801 801 802 804 806 810 813 813 814 815 814 816 818 821 824 825 827 829 830 831 831 832 832 831 831 830 830 831 831 831 832 832 833 833 833 832 832 832 833 832 831 830 829 828 827 826 826 824 822 824 827 829 829 828 827 826 825 824 823 822 823 825
781 783 785 784 787 792 790 794 812 812 789 774 773 769 766 768 772 780 791 791 787 788 791 797 801 801 801 804 806 809 812 813 815 816 815 816 818 820 824 826 826 829 831 832 832 833 833 832 831 831 831 831 831 831 832 832 833 834 834 833 833 833 833 833 832 831 829 827 826 825 825 823 822 823 826 828 828 827 826 825 823 823 823 822 822 823
780 786 789 789 788 791 796 799 800 799 793 787 783 775 771 776 778 784 797 800 790 787 792 796 799 801 801 805 807 808 811 816 821 821 817 817 820 821 823 825 826 828 831 832 833 834 834 834 833 832 832 832 831 832 832 832 833 833 833 833 832 832 832 832 831 830 829 827 826 825 825 824 824 825 826 828 828 826 824 823 822 822 822 821 822 822
778 784 791 797 793 788 796 804 804 811 812 798 784 775 771 774 775 777 794 802 792 785 789 793 797 801 803 806 809 809 813 823 830 827 820 819 821 822 824 825 826 829 831 833 834 835 835 835 834 834 834 834 834 834 833 833 833 833 833 833 832 832 832 831 831 831 830 830 829 829 829 829 829 829 829 829 828 826 824 822 821 821 820 821 821 822
780 781 785 797 799 792 797 807 810 815 812 794 782 776 773 775 773 776 798 810 795 784 787 791 795 800 802 805 808 810 817 829 834 828 820 820 822 822 824 827 828 830 833 834 835 836 836 836 836 836 836 836 836 836 835 834 834 834 834 834 833 833 832 832 832 832 832 832 832 831 831 831 831 830 829 828 827 826 825 823 821 821 820 821 821 821
786 786 788 798 802 795 796 802 805 807 801 787 780 778 776 774 775 791 818 819 794 784 788 789 794 800 800 802 807 813 820 827 828 824 819 819 821 823 825 828 830 832 833 834 836 836 837 838 838 838 838 838 838 838 837 836 835 835 835 835 835 835 834 833 833 833 833 833 832 832 831 830 830 829 827 827 826 825 825 823 822 821 820 821 821 821
792 791 793 798 799 795 796 802 806 804 793 783 781 780 776 777 787 809 823 810 790 789 790 789 796 801 801 803 809 815 819 819 819 819 819 820 823 825 827 830 831 832 834 835 836 836 837 838 838 839 840 840 840 840 839 838 837 836 836 835 835 836 835 835 834 833 834 834 833 832 831 830 829 828 827 826 826 825 824 823 823 822 821 821 821 820
798 798 797 798 799 797 795 800 809 808 792 780 782 781 779 791 808 813 806 794 791 794 792 793 799 801 801 806 810 813 816 815 816 819 821 823 826 828 829 831 832 834 835 836 837 838 838 839 839 839 840 840 841 841 840 840 839 838 837 836 836 836 836 835 835 834 834 833 833 832 831 830 829 827 827 826 826 825 824 823 822 822 821 820 819 819
796 799 801 799 798 798 798 803 816 816 795 780 785 789 790 801 809 803 794 792 794 794 795 799 801 800 803 807 810 813 816 816 818 821 823 825 827 829 831 833 834 836 837 837 839 840 840 840 840 840 840 840 841 841 841 841 840 839 839 838 837 837 836 835 835 834 833 833 832 831 831 831 829 827 826 825 825 825 824 822 822 822 821 820 819 818
791 797 805 803 799 803 810 812 811 806 792 783 789 797 797 797 796 794 795 797 796 797 799 801 802 802 804 806 810 815 817 818 821 823 824 827 829 830 833 834 835 837 838 839 840 841 841 842 841 841 841 841 840 841 840 840 840 840 840 839 838 837 837 835 835 834 833 833 832 831 830 830 830 828 826 825 824 823 823 822 821 821 821 821 820 818
792 793 800 802 797 798 805 804 796 792 790 789 791 795 795 794 793 793 796 798 799 800 801 802 804 805 805 808 813 816 817 819 822 823 825 828 829 831 833 835 836 838 839 840 841 842 842 842 842 842 842 841 841 841 840 840 840 839 839 839 838 838 837 836 835 834 833 832 832 831 830 830 829 829 827 826 825 823 822 821 821 820 820 820 819 818
786 785 790 795 794 792 793 793 788 788 791 791 791 793 794 794 794 795 796 799 800 800 801 803 806 806 807 811 814 816 818 820 821 823 825 827 829 832 834 835 837 838 839 840 841 842 842 842 842 842 841 841 841 840 840 840 839 839 839 838 838 837 836 836 835 834 833 832 831 831 830 830 829 828 827 826 825 824 823 823 822 821 820 819 819 818
784 785 788 792 795 798 800 795 788 787 790 791 792 794 794 795 796 796 798 800 800 800 802 803 805 807 809 812 814 817 818 819 821 824 826 827 830 832 834 836 837 838 839 840 840 841 841 841 842 841 841 841 840 840 839 839 839 838 838 837 836 836 835 835 834 834 833 832 831 830 830 829 829 828 827 826 825 824 824 823 823 822 821 820 819 819
789 789 791 792 794 797 798 794 788 787 788 788 791 793 794 796 797 797 798 799 800 801 803 804 806 808 810 812 814 817 818 819 822 825 826 828 831 832 833 836 837 837 839 839 840 841 841 841 841 841 840 840 840 839 839 839 838 837 837 836 835 835 834 834 833 833 832 832 831 830 829 828 828 827 826 826 825 824 824 823 823 822 821 821 820 819
790 792 792 793 795 795 794 793 792 791 791 790 790 792 793 794 796 796 798 799 801 803 804 805 807 809 810 812 814 816 818 820 821 823 826 828 830 831 833 835 835 837 838 838 839 840 840 840 840 840 840 840 840 839 839 839 838 838 836 836 835 834 833 833 832 831 831 831 830 829 828 827 827 826 825 825 824 824 824 823 823 822 821 820 820 819
791 795 793 794 800 803 803 801 799 799 800 797 793 792 792 793 794 796 797 799 801 803 805 806 808 809 810 812 813 815 818 820 820 822 825 827 828 831 832 833 835 836 836 837 838 839 839 840 839 839 839 839 839 839 839 839 838 838 836 835 835 833 832 831 830 830 830 829 829 828 827 826 826 825 824 824 824 824 823 823 822 822 820 819 818 818
793 796 794 798 803 804 803 800 798 799 802 799 795 794 794 793 795 797 798 798 799 800 802 805 808 809 811 812 812 814 817 819 820 823 824 825 827 829 830 832 833 834 835 836 837 838 838 838 838 838 839 839 839 839 839 838 838 837 836 835 834 833 832 830 829 828 828 827 827 827 826 825 824 823 823 822 822 822 821 821 820 820 819 818 817 816